Location: Casteau
(50.5142°N, 4.0161°E)
Time: 05:57:39
(UTC+00:00)

SPOT 5 - Pass Details

Date: 18 September 2020
Orbit: 623 x 815 km, 98.3° (Epoch: 27 October)

Event Time Altitude Azimuth Distance (km) Brightness Sun altitude
Exits shadow 20:40:12 44° 51° (NE) 1,094 3.6 -25.8°
Drops below altitude 10° 20:44:46 10° 356° (N) 2,397 6.1 -26.3°
Sets 20:47:14 0° 350° (N) 3,345 7.0 -26.6°
